Lid_Strength_Index
7 7 7 7 7 6 6 5 5 5 5 4 4 3 3 3 3 3 4 3 5 8 8 6 5 6 6 7 10 7 8 8 9 12 13 13 14 12 13 11 12 14 15 16 15 19 18 6 7 11 9 7 7 7
7 7 7 7 7 6 6 5 5 5 4 4 4 3 3 3 2 2 5 3 2 6 7 3 3 2 3 3 6 6 8 8 8 11 11 11 13 12 12 15 9 14 11 13 12 14 8 6 7 6 6 6 6 6
7 7 7 6 7 6 5 5 5 4 4 4 4 3 3 3 2 2 3 3 4 7 6 5 5 2 1 1 1 7 6 5 6 5 9 10 12 10 14 13 11 10 7 11 11 9 8 7 6 5 5 5 5 5
7 7 7 7 6 6 5 6 5 4 4 3 3 3 3 2 1 1 3 3 4 5 9 7 2 3 1 1 2 3 5 4 4 5 9 11 11 9 11 10 11 9 8 10 10 8 7 6 6 5 5 4 5 4
7 7 7 7 5 5 5 4 4 3 3 3 3 3 3 2 1 2 3 3 2 6 9 7 3 2 2 2 3 3 5 5 6 8 10 11 9 9 9 9 11 8 9 11 12 8 8 7 5 4 5 5 5 5
7 6 6 5 5 5 4 3 3 3 3 3 3 3 2 2 1 3 6 2 2 2 6 10 4 5 4 3 4 4 4 5 6 8 10 8 7 9 12 13 8 7 6 6 8 6 6 5 5 4 5 5 4 4
6 6 5 5 5 4 3 3 3 3 2 2 2 2 2 1 2 5 6 4 2 2 7 10 9 5 4 5 4 5 4 5 7 9 11 9 9 9 11 13 9 7 6 5 5 5 7 6 6 4 4 4 3 3
6 6 5 5 4 4 3 3 3 3 2 2 2 2 1 1 2 4 3 2 2 5 5 11 10 8 4 7 8 4 7 6 9 10 9 10 9 10 12 9 7 6 6 6 5 5 6 5 4 4 4 4 4 5
7 6 6 5 5 4 4 4 3 3 2 2 1 1 3 3 5 4 1 1 1 4 9 10 12 13 6 7 7 7 6 11 8 11 11 10 11 12 10 10 9 8 8 7 6 5 5 6 5 5 5 5 5 5
7 6 5 5 5 4 4 4 3 2 1 1 3 5 7 4 1 2 3 5 5 5 7 10 9 11 9 9 9 9 8 10 12 11 9 11 12 9 8 8 9 9 8 7 8 8 6 6 6 6 5 5 5 5
6 6 5 5 5 4 4 3 2 1 1 3 5 5 3 0 3 5 8 8 7 10 9 9 9 11 6 11 12 9 11 11 13 11 11 12 12 10 9 9 7 7 7 7 7 7 5 5 5 5 5 5 4 4
6 6 5 5 5 4 4 3 1 2 2 4 5 3 2 4 7 9 9 8 9 10 7 8 7 7 7 9 11 10 12 11 14 11 12 14 11 10 10 9 7 7 7 7 6 7 6 6 6 6 6 6 6 5
6 5 5 5 4 3 3 2 1 2 2 3 5 6 6 8 12 11 12 10 10 8 7 7 9 7 9 9 11 12 13 13 8 12 13 11 11 10 9 8 8 8 8 8 7 7 7 7 6 6 6 6 6 5
5 5 5 4 4 3 2 2 1 2 4 7 8 11 10 10 10 9 9 9 6 6 6 7 8 9 9 11 11 13 11 10 14 15 14 12 11 10 8 8 8 9 9 9 8 8 8 8 7 7 7 7 7 7
5 5 4 4 3 3 2 2 2 2 5 7 7 12 10 7 6 6 6 6 5 5 6 7 7 8 10 12 11 11 13 14 13 14 12 11 10 9 8 8 9 9 9 9 8 8 8 8 8 7 7 7 8 8
4 4 4 3 3 2 2 2 3 3 5 6 6 9 7 7 7 7 6 6 4 5 5 6 9 10 11 11 12 13 13 14 13 13 11 10 9 7 8 8 8 9 9 9 8 8 8 8 8 8 8 8 9 9
4 5 3 3 2 2 2 3 4 7 6 7 8 6 6 6 6 6 5 5 4 6 9 9 11 11 8 12 13 12 13 12 13 11 8 7 7 7 7 7 7 8 8 8 8 8 8 7 7 9 10 9 9 9
5 3 3 2 2 3 4 4 5 6 8 6 7 6 5 5 6 5 5 4 5 7 7 9 7 11 12 13 12 11 11 9 9 8 7 6 6 5 5 6 7 7 7 7 7 7 7 7 7 8 9 9 9 9
4 3 3 2 2 4 6 5 4 8 7 6 5 4 4 4 4 4 4 4 4 4 5 7 10 11 10 9 10 10 9 9 9 8 7 6 4 4 4 5 5 6 6 7 7 7 7 7 8 8 7 7 9 9
3 3 3 2 2 5 5 5 3 6 8 5 4 5 5 5 4 4 4 4 5 6 8 9 9 9 9 9 8 8 8 7 8 8 6 5 4 4 4 4 4 5 5 5 5 7 6 6 7 7 6 7 8 9
3 2 2 2 4 4 5 5 5 5 5 6 4 5 6 5 5 6 6 4 6 8 8 8 8 8 8 7 7 6 6 6 6 5 5 5 4 4 4 4 5 5 6 6 7 7 7 7 7 7 7 8 7 7
2 2 3 4 5 5 5 4 6 5 6 5 5 5 7 7 7 6 4 6 7 7 7 8 8 8 7 7 5 4 4 3 3 4 4 4 5 4 4 4 4 5 6 7 7 7 7 7 7 7 8 8 7 7
3 3 4 4 6 7 8 4 7 6 7 6 6 8 8 7 6 4 7 6 6 5 5 6 6 6 6 5 3 3 3 3 4 4 3 3 3 3 4 4 4 4 5 6 6 7 7 8 8 7 6 6 7 7
3 5 6 6 7 9 6 7 6 6 6 7 8 9 8 7 5 7 9 8 6 5 6 6 6 5 4 4 4 4 3 3 3 3 3 3 4 3 3 3 3 3 4 4 5 6 6 7 7 7 6 6 5 6
8 8 8 10 6 8 8 7 7 7 8 7 8 9 8 6 9 9 9 7 6 6 6 6 6 5 5 5 4 3 2 3 3 4 3 2 3 3 3 3 3 3 3 3 4 5 6 6 6 6 6 6 6 6
11 8 9 8 8 8 7 8 8 8 7 8 8 7 7 8 9 10 8 6 6 6 6 6 6 6 5 4 4 4 3 2 2 3 3 2 2 3 4 5 5 4 2 3 4 5 6 6 7 7 7 7 8 6
11 9 6 5 5 6 6 6 5 7 8 9 8 8 9 11 11 8 5 4 5 5 4 4 4 5 5 4 4 3 2 1 2 2 2 1 1 1 2 4 5 4 3 2 3 5 6 6 6 7 6 6 6 6
7 7 9 7 7 5 7 7 8 8 7 6 7 9 10 10 10 5 4 3 3 3 3 3 3 3 4 4 4 3 2 1 1 1 1 2 2 2 2 3 4 9 5 3 3 4 5 5 6 5 5 6 6 5
7 5 5 7 6 6 7 7 7 6 5 6 8 9 8 5 4 3 3 3 2 2 4 4 4 3 4 4 3 4 3 3 3 4 5 5 4 3 2 3 4 4 4 6 9 6 5 5 4 4 4 4 4 4
6 4 6 7 8 7 6 4 5 4 3 4 4 4 5 4 3 2 3 3 4 4 3 3 3 3 4 5 4 4 4 3 3 4 4 5 4 2 2 3 4 4 4 5 5 6 9 5 6 3 4 4 4 5
4 5 6 6 6 5 4 3 3 3 3 4 4 5 6 4 3 2 2 2 3 3 3 4 4 3 3 4 4 5 6 5 3 3 4 4 3 3 3 3 2 3 4 4 5 4 4 4 4 4 3 3 3 4
5 5 6 7 7 4 4 5 5 5 5 5 6 5 6 6 7 4 2 2 3 4 6 5 4 4 3 3 4 4 8 5 5 5 5 5 5 5 4 3 2 1 2 3 3 3 3 4 4 4 4 3 3 3
5 5 5 6 6 7 6 6 6 7 6 7 6 5 5 6 7 4 2 1 3 3 3 3 3 3 3 3 3 5 6 5 7 11 11 11 11 10 6 5 4 3 2 2 3 3 3 3 3 4 4 3 3 3